SWA2842 KLAX-KDEN

Flight info

Callsign SWA2842
Flight time 1h 41m
Altitude 35000
Route ORCKA5 BEALE J146 DICEE BUMMP SSKII4
Aircraft B738/M-SDE2E3FGHIRWXY/LB1

Departure

Time 2026-05-04 22:59
Airport Los Angeles International Airport (KLAX)

Arrival

Time 2026-05-05 00:41
Airport Denver International Airport (KDEN)
Time Latitude Longitude Altitude Speed Heading
2026-05-04 21:21 33.94768 -118.40061 125 ft 0 kts 243°
2026-05-04 22:45 33.94768 -118.40060 125 ft 2 kts 243°
2026-05-04 22:45 33.94776 -118.40043 121 ft 2 kts 243°
2026-05-04 22:46 33.94783 -118.40025 124 ft 2 kts 242°
2026-05-04 22:46 33.94789 -118.40013 121 ft 2 kts 242°
2026-05-04 22:46 33.94792 -118.40006 122 ft 0 kts 242°
2026-05-04 22:55 33.94791 -118.40007 125 ft 1 kts 243°
2026-05-04 22:55 33.94809 -118.40033 122 ft 9 kts 326°
2026-05-04 22:56 33.94896 -118.40079 122 ft 16 kts 11°
2026-05-04 22:56 33.94939 -118.39941 122 ft 9 kts 57°
2026-05-04 22:56 33.94950 -118.39927 123 ft 0 kts 39°
2026-05-04 22:57 33.94954 -118.39923 123 ft 4 kts 39°
2026-05-04 22:57 33.95019 -118.39907 123 ft 15 kts 348°
2026-05-04 22:58 33.95056 -118.39932 122 ft 2 kts 287°
2026-05-04 22:58 33.95039 -118.39978 122 ft 11 kts 254°
2026-05-04 22:58 33.95018 -118.40186 123 ft 59 kts 263°
2026-05-04 22:58 33.94935 -118.41004 126 ft 135 kts 263°
2026-05-04 22:59 33.94793 -118.42364 338 ft 184 kts 262°
2026-05-04 22:59 33.94630 -118.43999 1031 ft 207 kts 261°
2026-05-04 22:59 33.94446 -118.45785 1829 ft 222 kts 261°
2026-05-04 22:59 33.94238 -118.47675 2650 ft 232 kts 261°
2026-05-04 23:00 33.94003 -118.49628 3488 ft 239 kts 261°
2026-05-04 23:00 33.93759 -118.51649 4296 ft 249 kts 261°
2026-05-04 23:00 33.93488 -118.53866 4452 ft 286 kts 261°
2026-05-04 23:00 33.93197 -118.56326 4555 ft 296 kts 262°
2026-05-04 23:01 33.92932 -118.58734 4702 ft 293 kts 262°
2026-05-04 23:01 33.92644 -118.61147 4873 ft 287 kts 261°
2026-05-04 23:01 33.92345 -118.63524 4937 ft 288 kts 262°
2026-05-04 23:01 33.91838 -118.65812 4892 ft 283 kts 239°
2026-05-04 23:02 33.90423 -118.67399 5066 ft 284 kts 204°
2026-05-04 23:02 33.88421 -118.67786 5493 ft 305 kts 174°
2026-05-04 23:02 33.86442 -118.66865 5885 ft 310 kts 144°
2026-05-04 23:02 33.85046 -118.64883 6289 ft 314 kts 120°
2026-05-04 23:03 33.84390 -118.62375 6621 ft 318 kts 95°
2026-05-04 23:03 33.84725 -118.59760 6958 ft 320 kts 67°
2026-05-04 23:03 33.85827 -118.57419 7358 ft 326 kts 57°
2026-05-04 23:03 33.87121 -118.55145 7721 ft 332 kts 56°
2026-05-04 23:04 33.87982 -118.53627 7950 ft 331 kts 57°
2026-05-04 23:04 33.89072 -118.51623 8274 ft 330 kts 58°
2026-05-04 23:04 33.90282 -118.49277 8620 ft 329 kts 60°
2026-05-04 23:04 33.91467 -118.46901 9003 ft 334 kts 60°
2026-05-04 23:05 33.92667 -118.44468 9391 ft 340 kts 60°
2026-05-04 23:05 33.93921 -118.42058 9848 ft 340 kts 57°
2026-05-04 23:05 33.95265 -118.39703 10328 ft 342 kts 56°
2026-05-04 23:05 33.96617 -118.37376 10800 ft 344 kts 56°
2026-05-04 23:06 33.97983 -118.35004 11286 ft 346 kts 57°
2026-05-04 23:06 33.99353 -118.32599 11766 ft 349 kts 57°
2026-05-04 23:06 34.00736 -118.30159 12286 ft 353 kts 57°
2026-05-04 23:06 34.02125 -118.27706 12794 ft 357 kts 57°
2026-05-04 23:07 34.03533 -118.25222 13330 ft 360 kts 57°
2026-05-04 23:07 34.04957 -118.22709 13855 ft 365 kts 57°
2026-05-04 23:07 34.06393 -118.20174 14311 ft 369 kts 57°
2026-05-04 23:07 34.07845 -118.17608 14783 ft 373 kts 57°
2026-05-04 23:08 34.09324 -118.14992 15273 ft 380 kts 56°
2026-05-04 23:08 34.10825 -118.12337 15772 ft 386 kts 56°
2026-05-04 23:08 34.12351 -118.09634 16284 ft 393 kts 56°
2026-05-04 23:08 34.13899 -118.06892 16779 ft 398 kts 56°
2026-05-04 23:09 34.15466 -118.04113 17291 ft 403 kts 56°
2026-05-04 23:09 34.17033 -118.01331 17815 ft 407 kts 56°
2026-05-04 23:09 34.18653 -117.98451 18350 ft 411 kts 56°
2026-05-04 23:09 34.20241 -117.95626 18795 ft 415 kts 55°
2026-05-04 23:10 34.21871 -117.92722 19260 ft 418 kts 56°
2026-05-04 23:10 34.23490 -117.89777 19666 ft 423 kts 56°
2026-05-04 23:10 34.25132 -117.86784 19965 ft 431 kts 55°
2026-05-04 23:10 34.26837 -117.83770 20353 ft 437 kts 54°
2026-05-04 23:11 34.28574 -117.80724 20740 ft 443 kts 54°
2026-05-04 23:11 34.30329 -117.77626 21117 ft 448 kts 54°
2026-05-04 23:11 34.32090 -117.74489 21469 ft 453 kts 54°
2026-05-04 23:11 34.33861 -117.71314 21784 ft 457 kts 54°
2026-05-04 23:12 34.35537 -117.68029 22195 ft 462 kts 64°
2026-05-04 23:12 34.36827 -117.64455 22572 ft 465 kts 69°
2026-05-04 23:12 34.37987 -117.60788 22929 ft 468 kts 70°
2026-05-04 23:12 34.39101 -117.57122 23301 ft 471 kts 70°
2026-05-04 23:13 34.40245 -117.53390 23679 ft 474 kts 70°
2026-05-04 23:13 34.41416 -117.49648 24001 ft 478 kts 69°
2026-05-04 23:13 34.42620 -117.45876 24332 ft 481 kts 69°
2026-05-04 23:13 34.43848 -117.42082 24663 ft 484 kts 69°
2026-05-04 23:14 34.45083 -117.38284 25003 ft 487 kts 69°
2026-05-04 23:14 34.46329 -117.34456 25350 ft 489 kts 69°
2026-05-04 23:14 34.47575 -117.30618 25689 ft 491 kts 69°
2026-05-04 23:14 34.48830 -117.26742 26040 ft 493 kts 69°
2026-05-04 23:15 34.50083 -117.22862 26388 ft 495 kts 69°
2026-05-04 23:15 34.51337 -117.18974 26735 ft 496 kts 69°
2026-05-04 23:15 34.52595 -117.15069 27083 ft 498 kts 69°
2026-05-04 23:15 34.53881 -117.11167 27449 ft 499 kts 64°
2026-05-04 23:16 34.55683 -117.07591 27786 ft 495 kts 47°
2026-05-04 23:16 34.57879 -117.04392 28213 ft 494 kts 45°
2026-05-04 23:16 34.60098 -117.01283 28570 ft 494 kts 45°
2026-05-04 23:16 34.62354 -116.98128 28938 ft 494 kts 45°
2026-05-04 23:17 34.64595 -116.94953 29344 ft 494 kts 46°
2026-05-04 23:17 34.66817 -116.91758 29720 ft 495 kts 46°
2026-05-04 23:17 34.69027 -116.88544 30055 ft 495 kts 46°
2026-05-04 23:17 34.71231 -116.85318 30368 ft 496 kts 46°
2026-05-04 23:18 34.73428 -116.82092 30664 ft 496 kts 46°
2026-05-04 23:18 34.75631 -116.78855 30982 ft 496 kts 46°
2026-05-04 23:18 34.77832 -116.75622 31285 ft 495 kts 46°
2026-05-04 23:18 34.80027 -116.72398 31585 ft 495 kts 46°
2026-05-04 23:19 34.82219 -116.69178 31904 ft 493 kts 47°
2026-05-04 23:19 34.84403 -116.65962 32212 ft 492 kts 47°
2026-05-04 23:19 34.86594 -116.62769 32528 ft 490 kts 45°
2026-05-04 23:19 34.88845 -116.59677 32845 ft 487 kts 43°
2026-05-04 23:20 34.91140 -116.56638 33165 ft 485 kts 43°
2026-05-04 23:20 34.93435 -116.53635 33490 ft 483 kts 43°
2026-05-04 23:20 34.95715 -116.50645 33809 ft 481 kts 43°
2026-05-04 23:20 34.97984 -116.47651 34094 ft 478 kts 43°
2026-05-04 23:21 35.00197 -116.44709 34378 ft 475 kts 43°
2026-05-04 23:21 35.02418 -116.41741 34663 ft 472 kts 44°
2026-05-04 23:21 35.04626 -116.38779 34888 ft 471 kts 44°
2026-05-04 23:21 35.06845 -116.35799 34860 ft 477 kts 44°
2026-05-04 23:22 35.11357 -116.29733 34878 ft 486 kts 44°
2026-05-04 23:22 35.13641 -116.26655 34775 ft 493 kts 44°
2026-05-04 23:22 35.15992 -116.23452 34235 ft 515 kts 45°
2026-05-04 23:23 35.20779 -116.16953 34488 ft 518 kts 44°
2026-05-04 23:23 35.23212 -116.13701 34670 ft 518 kts 44°
2026-05-04 23:23 35.25634 -116.10445 34795 ft 516 kts 44°
2026-05-04 23:24 35.30370 -116.04027 34849 ft 503 kts 44°
2026-05-04 23:24 35.35089 -115.97616 34889 ft 512 kts 44°
2026-05-04 23:25 35.39917 -115.91052 34886 ft 524 kts 45°
2026-05-04 23:25 35.44844 -115.84335 34882 ft 536 kts 45°
2026-05-04 23:26 35.49874 -115.77462 34880 ft 546 kts 45°
2026-05-04 23:26 35.55006 -115.70435 34893 ft 557 kts 45°
2026-05-04 23:27 35.60223 -115.63277 34880 ft 567 kts 45°
2026-05-04 23:27 35.65474 -115.56053 34873 ft 573 kts 45°
2026-05-04 23:28 35.68110 -115.52349 34733 ft 578 kts 47°
2026-05-04 23:28 35.70703 -115.48538 34426 ft 580 kts 47°
2026-05-04 23:28 35.73292 -115.44772 34219 ft 571 kts 46°
2026-05-04 23:28 35.75924 -115.41181 34406 ft 560 kts 44°
2026-05-04 23:29 35.78569 -115.37675 34598 ft 559 kts 44°
2026-05-04 23:29 35.81215 -115.34165 34781 ft 559 kts 44°
2026-05-04 23:29 35.86472 -115.27035 34872 ft 566 kts 45°
2026-05-04 23:30 35.91729 -115.19727 34886 ft 574 kts 46°
2026-05-04 23:30 35.97039 -115.12291 34889 ft 579 kts 46°
2026-05-04 23:31 36.02391 -115.04799 34879 ft 583 kts 46°
2026-05-04 23:31 36.07756 -114.97286 34794 ft 590 kts 48°
2026-05-04 23:32 36.13211 -114.89625 34777 ft 597 kts 48°
2026-05-04 23:32 36.17669 -114.83159 34732 ft 585 kts 57°
2026-05-04 23:33 36.19611 -114.78838 34764 ft 567 kts 73°
2026-05-04 23:33 36.21023 -114.74302 34764 ft 563 kts 75°
2026-05-04 23:33 36.23664 -114.65160 34735 ft 564 kts 76°
2026-05-04 23:34 36.26342 -114.56007 34734 ft 566 kts 75°
2026-05-04 23:34 36.29111 -114.46840 34730 ft 569 kts 74°
2026-05-04 23:35 36.31915 -114.37646 34745 ft 571 kts 74°
2026-05-04 23:35 36.34717 -114.28412 34740 ft 574 kts 74°
2026-05-04 23:36 36.37505 -114.19167 34751 ft 575 kts 74°
2026-05-04 23:36 36.40306 -114.09842 34736 ft 575 kts 74°
2026-05-04 23:37 36.43078 -114.00593 34750 ft 569 kts 74°
2026-05-04 23:37 36.45826 -113.91386 34764 ft 567 kts 74°
2026-05-04 23:38 36.48555 -113.82208 34768 ft 565 kts 74°
2026-05-04 23:38 36.51270 -113.73051 34767 ft 564 kts 74°
2026-05-04 23:39 36.53957 -113.63954 34774 ft 565 kts 74°
2026-05-04 23:39 36.56663 -113.54768 34779 ft 565 kts 74°
2026-05-04 23:40 36.59362 -113.45573 34790 ft 566 kts 74°
2026-05-04 23:40 36.62058 -113.36363 34787 ft 567 kts 74°
2026-05-04 23:41 36.64743 -113.27127 34786 ft 568 kts 74°
2026-05-04 23:41 36.67416 -113.17851 34806 ft 569 kts 74°
2026-05-04 23:42 36.70086 -113.08559 34844 ft 569 kts 74°
2026-05-04 23:42 36.72728 -112.99339 34866 ft 569 kts 74°
2026-05-04 23:43 36.75386 -112.90034 34862 ft 569 kts 74°
2026-05-04 23:43 36.78032 -112.80741 34842 ft 568 kts 74°
2026-05-04 23:44 36.80663 -112.71465 34821 ft 567 kts 74°
2026-05-04 23:44 36.83286 -112.62189 34787 ft 565 kts 74°
2026-05-04 23:45 36.85900 -112.52908 34776 ft 564 kts 74°
2026-05-04 23:45 36.88479 -112.43725 34773 ft 563 kts 74°
2026-05-04 23:46 36.91068 -112.34505 34773 ft 562 kts 74°
2026-05-04 23:46 36.93653 -112.25287 34773 ft 561 kts 73°
2026-05-04 23:47 36.96224 -112.16092 34767 ft 560 kts 73°
2026-05-04 23:47 36.98783 -112.06903 34762 ft 559 kts 73°
2026-05-04 23:48 37.01331 -111.97721 34757 ft 558 kts 73°
2026-05-04 23:48 37.03872 -111.88534 34759 ft 558 kts 73°
2026-05-04 23:49 37.06405 -111.79338 34774 ft 559 kts 73°
2026-05-04 23:49 37.08931 -111.70140 34790 ft 559 kts 73°
2026-05-04 23:50 37.11438 -111.60981 34815 ft 560 kts 73°
2026-05-04 23:50 37.13963 -111.51729 34812 ft 560 kts 73°
2026-05-04 23:51 37.16476 -111.42476 34815 ft 561 kts 73°
2026-05-04 23:51 37.18991 -111.33189 34793 ft 562 kts 73°
2026-05-04 23:52 37.21498 -111.23901 34766 ft 562 kts 73°
2026-05-04 23:52 37.24560 -111.14858 34764 ft 564 kts 64°
2026-05-04 23:53 37.28181 -111.06156 34705 ft 564 kts 62°
2026-05-04 23:53 37.31824 -110.97447 34742 ft 562 kts 62°
2026-05-04 23:54 37.35379 -110.88704 34752 ft 562 kts 64°
2026-05-04 23:54 37.38833 -110.79874 34741 ft 563 kts 64°
2026-05-04 23:55 37.42279 -110.71033 34744 ft 562 kts 64°
2026-05-04 23:56 37.47466 -110.57800 34742 ft 561 kts 63°
2026-05-04 23:56 37.50915 -110.48996 34739 ft 561 kts 63°
2026-05-04 23:57 37.54333 -110.40239 34752 ft 560 kts 63°
2026-05-04 23:57 37.57762 -110.31427 34754 ft 560 kts 63°
2026-05-04 23:58 37.61182 -110.22611 34772 ft 560 kts 63°
2026-05-04 23:58 37.64597 -110.13777 34777 ft 560 kts 63°
2026-05-04 23:59 37.68013 -110.04919 34787 ft 560 kts 63°
2026-05-04 23:59 37.71421 -109.96056 34788 ft 561 kts 63°
2026-05-05 00:00 37.74826 -109.87180 34799 ft 561 kts 64°
2026-05-05 00:00 37.78207 -109.78336 34817 ft 562 kts 63°
2026-05-05 00:01 37.81604 -109.69428 34832 ft 562 kts 63°
2026-05-05 00:01 37.84996 -109.60507 34827 ft 562 kts 63°
2026-05-05 00:02 37.88375 -109.51593 34822 ft 562 kts 63°
2026-05-05 00:02 37.91694 -109.42811 34804 ft 559 kts 63°
2026-05-05 00:03 37.95078 -109.33830 34783 ft 559 kts 63°
2026-05-05 00:03 37.98424 -109.24925 34785 ft 559 kts 63°
2026-05-05 00:04 38.01763 -109.16016 34788 ft 560 kts 63°
2026-05-05 00:04 38.05095 -109.07094 34782 ft 560 kts 63°
2026-05-05 00:05 38.08429 -108.98144 34787 ft 560 kts 63°
2026-05-05 00:05 38.11791 -108.89206 34775 ft 561 kts 62°
2026-05-05 00:06 38.15269 -108.80401 34772 ft 561 kts 61°
2026-05-05 00:06 38.18783 -108.71558 34777 ft 561 kts 61°
2026-05-05 00:07 38.22278 -108.62666 34778 ft 561 kts 61°
2026-05-05 00:07 38.25725 -108.53822 34788 ft 560 kts 61°
2026-05-05 00:08 38.29184 -108.44921 34788 ft 561 kts 61°
2026-05-05 00:08 38.32641 -108.36006 34791 ft 561 kts 61°
2026-05-05 00:09 38.36097 -108.27068 34804 ft 562 kts 60°
2026-05-05 00:09 38.39549 -108.18122 34807 ft 562 kts 60°
2026-05-05 00:10 38.42970 -108.09220 34855 ft 564 kts 60°
2026-05-05 00:10 38.44704 -108.04703 34753 ft 572 kts 60°
2026-05-05 00:10 38.46469 -108.00097 34548 ft 583 kts 60°
2026-05-05 00:10 38.48252 -107.95414 34346 ft 592 kts 61°
2026-05-05 00:11 38.50059 -107.90635 34126 ft 598 kts 61°
2026-05-05 00:11 38.51860 -107.85851 33893 ft 596 kts 61°
2026-05-05 00:11 38.53644 -107.81096 33614 ft 589 kts 61°
2026-05-05 00:11 38.55398 -107.76417 33337 ft 581 kts 61°
2026-05-05 00:12 38.57135 -107.71784 33058 ft 575 kts 60°
2026-05-05 00:12 38.58838 -107.67246 32782 ft 572 kts 60°
2026-05-05 00:12 38.60572 -107.62622 32515 ft 568 kts 60°
2026-05-05 00:12 38.62251 -107.58137 32256 ft 565 kts 60°
2026-05-05 00:13 38.63939 -107.53623 32000 ft 561 kts 60°
2026-05-05 00:13 38.65615 -107.49128 31730 ft 558 kts 60°
2026-05-05 00:13 38.67296 -107.44653 31364 ft 555 kts 60°
2026-05-05 00:13 38.68956 -107.40259 30981 ft 542 kts 59°
2026-05-05 00:14 38.70584 -107.35959 30632 ft 530 kts 59°
2026-05-05 00:14 38.72188 -107.31728 30289 ft 524 kts 59°
2026-05-05 00:14 38.73765 -107.27562 29934 ft 517 kts 59°
2026-05-05 00:14 38.75330 -107.23421 29575 ft 515 kts 59°
2026-05-05 00:15 38.76887 -107.19296 29179 ft 514 kts 60°
2026-05-05 00:15 38.78431 -107.15194 28775 ft 507 kts 60°
2026-05-05 00:15 38.79950 -107.11145 28376 ft 500 kts 60°
2026-05-05 00:15 38.81446 -107.07148 27987 ft 493 kts 60°
2026-05-05 00:16 38.82919 -107.03211 27608 ft 487 kts 60°
2026-05-05 00:16 38.84354 -106.99368 27198 ft 477 kts 60°
2026-05-05 00:16 38.85776 -106.95557 26921 ft 472 kts 60°
2026-05-05 00:16 38.87198 -106.91749 26916 ft 475 kts 60°
2026-05-05 00:17 38.88623 -106.87928 26911 ft 471 kts 61°
2026-05-05 00:17 38.90029 -106.84149 26911 ft 469 kts 61°
2026-05-05 00:17 38.91432 -106.80372 26899 ft 469 kts 60°
2026-05-05 00:17 38.92839 -106.76581 26920 ft 469 kts 61°
2026-05-05 00:18 38.94239 -106.72802 26899 ft 470 kts 61°
2026-05-05 00:18 38.95644 -106.69007 26788 ft 469 kts 61°
2026-05-05 00:18 38.97037 -106.65233 26656 ft 465 kts 61°
2026-05-05 00:18 38.98418 -106.61491 26533 ft 463 kts 61°
2026-05-05 00:19 38.99798 -106.57749 26417 ft 462 kts 60°
2026-05-05 00:19 39.01170 -106.54016 26318 ft 460 kts 61°
2026-05-05 00:19 39.02514 -106.50346 26236 ft 459 kts 61°
2026-05-05 00:19 39.03873 -106.46628 26134 ft 458 kts 61°
2026-05-05 00:20 39.05225 -106.42924 26023 ft 457 kts 61°
2026-05-05 00:20 39.06571 -106.39235 25931 ft 455 kts 61°
2026-05-05 00:20 39.07463 -106.36784 25865 ft 455 kts 61°
2026-05-05 00:20 39.08803 -106.33105 25760 ft 453 kts 62°
2026-05-05 00:21 39.10137 -106.29435 25652 ft 451 kts 62°
2026-05-05 00:21 39.11464 -106.25783 25540 ft 450 kts 62°
2026-05-05 00:21 39.12787 -106.22137 25420 ft 449 kts 62°
2026-05-05 00:21 39.14104 -106.18502 25281 ft 447 kts 62°
2026-05-05 00:22 39.15416 -106.14878 25125 ft 445 kts 62°
2026-05-05 00:22 39.16714 -106.11275 24995 ft 442 kts 62°
2026-05-05 00:22 39.18007 -106.07679 24851 ft 440 kts 62°
2026-05-05 00:22 39.19289 -106.04107 24693 ft 439 kts 62°
2026-05-05 00:23 39.20572 -106.00532 24471 ft 439 kts 62°
2026-05-05 00:23 39.21849 -105.96969 24200 ft 436 kts 62°
2026-05-05 00:23 39.23110 -105.93444 23937 ft 431 kts 62°
2026-05-05 00:23 39.24360 -105.89953 23684 ft 427 kts 62°
2026-05-05 00:24 39.25608 -105.86488 23419 ft 424 kts 62°
2026-05-05 00:24 39.26829 -105.83102 23158 ft 421 kts 63°
2026-05-05 00:24 39.28061 -105.79686 22889 ft 419 kts 63°
2026-05-05 00:24 39.29289 -105.76273 22625 ft 417 kts 63°
2026-05-05 00:25 39.30512 -105.72870 22357 ft 416 kts 63°
2026-05-05 00:25 39.31725 -105.69488 22095 ft 415 kts 63°
2026-05-05 00:25 39.32939 -105.66105 21838 ft 414 kts 63°
2026-05-05 00:25 39.34164 -105.62742 21592 ft 413 kts 63°
2026-05-05 00:26 39.35395 -105.59380 21347 ft 413 kts 63°
2026-05-05 00:26 39.36608 -105.56065 21086 ft 412 kts 63°
2026-05-05 00:26 39.37829 -105.52722 20857 ft 410 kts 63°
2026-05-05 00:26 39.39045 -105.49382 20812 ft 410 kts 63°
2026-05-05 00:27 39.40255 -105.46053 20782 ft 409 kts 63°
2026-05-05 00:27 39.41391 -105.42685 20776 ft 411 kts 72°
2026-05-05 00:27 39.41813 -105.39037 20803 ft 412 kts 88°
2026-05-05 00:27 39.41848 -105.35351 20779 ft 402 kts 90°
2026-05-05 00:28 39.41832 -105.31813 20697 ft 385 kts 90°
2026-05-05 00:28 39.41811 -105.28395 20439 ft 374 kts 90°
2026-05-05 00:28 39.41801 -105.25071 20145 ft 365 kts 90°
2026-05-05 00:28 39.41802 -105.21813 19787 ft 359 kts 90°
2026-05-05 00:29 39.41810 -105.18607 19432 ft 354 kts 90°
2026-05-05 00:29 39.41821 -105.15444 19048 ft 350 kts 90°
2026-05-05 00:29 39.41834 -105.12304 18569 ft 348 kts 90°
2026-05-05 00:29 39.41847 -105.09189 18138 ft 345 kts 90°
2026-05-05 00:30 39.41858 -105.06095 17603 ft 343 kts 90°
2026-05-05 00:30 39.41870 -105.03021 17111 ft 340 kts 90°
2026-05-05 00:30 39.41880 -104.99973 16611 ft 338 kts 90°
2026-05-05 00:30 39.41888 -104.96940 16112 ft 336 kts 90°
2026-05-05 00:31 39.41908 -104.93927 15624 ft 334 kts 87°
2026-05-05 00:31 39.42117 -104.90944 15138 ft 332 kts 83°
2026-05-05 00:31 39.42408 -104.87988 14671 ft 330 kts 82°
2026-05-05 00:31 39.42700 -104.85055 14202 ft 329 kts 83°
2026-05-05 00:32 39.42977 -104.82126 13734 ft 327 kts 83°
2026-05-05 00:32 39.43240 -104.79211 13221 ft 325 kts 83°
2026-05-05 00:32 39.43519 -104.76324 12702 ft 322 kts 78°
2026-05-05 00:32 39.44203 -104.73626 12216 ft 318 kts 67°
2026-05-05 00:33 39.45135 -104.71082 11997 ft 305 kts 54°
2026-05-05 00:33 39.46586 -104.69230 11981 ft 284 kts 33°
2026-05-05 00:33 39.48296 -104.68148 11972 ft 264 kts 16°
2026-05-05 00:33 39.50030 -104.67513 11973 ft 256 kts 13°
2026-05-05 00:34 39.51734 -104.66949 11972 ft 251 kts 13°
2026-05-05 00:34 39.53448 -104.66402 11773 ft 256 kts
2026-05-05 00:34 39.55222 -104.66246 11531 ft 254 kts 359°
2026-05-05 00:34 39.56986 -104.66262 11173 ft 252 kts 359°
2026-05-05 00:35 39.58735 -104.66283 10809 ft 251 kts 359°
2026-05-05 00:35 39.60457 -104.66296 10462 ft 243 kts
2026-05-05 00:35 39.62077 -104.66290 10153 ft 230 kts
2026-05-05 00:35 39.62359 -104.66288 10093 ft 229 kts
2026-05-05 00:36 39.63755 -104.66277 9800 ft 224 kts
2026-05-05 00:36 39.65288 -104.66262 9423 ft 216 kts
2026-05-05 00:36 39.66767 -104.66246 8991 ft 209 kts
2026-05-05 00:36 39.68207 -104.66230 8492 ft 204 kts
2026-05-05 00:37 39.69593 -104.66214 8056 ft 194 kts
2026-05-05 00:37 39.70917 -104.66199 7580 ft 186 kts
2026-05-05 00:37 39.72190 -104.66182 7083 ft 179 kts
2026-05-05 00:37 39.73418 -104.66167 6576 ft 173 kts
2026-05-05 00:38 39.74602 -104.66155 6203 ft 159 kts
2026-05-05 00:38 39.75596 -104.66144 6309 ft 139 kts
2026-05-05 00:38 39.76612 -104.66133 6433 ft 151 kts
2026-05-05 00:38 39.77652 -104.66127 6500 ft 143 kts
2026-05-05 00:39 39.78583 -104.66103 6182 ft 129 kts
2026-05-05 00:39 39.79422 -104.66089 5950 ft 118 kts 359°
2026-05-05 00:39 39.80331 -104.66087 5899 ft 144 kts 359°
2026-05-05 00:39 39.81354 -104.66058 5914 ft 140 kts 358°
2026-05-05 00:40 39.82268 -104.66045 5642 ft 125 kts 358°
2026-05-05 00:40 39.83068 -104.66053 5442 ft 109 kts 358°
2026-05-05 00:40 39.83783 -104.66050 5415 ft 84 kts 358°
2026-05-05 00:40 39.84222 -104.66044 5418 ft 52 kts
2026-05-05 00:41 39.84555 -104.66039 5411 ft 44 kts
2026-05-05 00:41 39.84804 -104.66092 5401 ft 34 kts 341°
2026-05-05 00:41 39.85008 -104.66221 5399 ft 31 kts 349°
2026-05-05 00:41 39.85195 -104.66249 5395 ft 21 kts
2026-05-05 00:42 39.85286 -104.66287 5397 ft 10 kts 302°
2026-05-05 00:42 39.85301 -104.66349 5399 ft 1 kts 307°
2026-05-05 00:42 39.85304 -104.66353 5391 ft 1 kts 318°
2026-05-05 00:42 39.85369 -104.66354 5395 ft 18 kts
2026-05-05 00:43 39.85534 -104.66351 5391 ft 29 kts
2026-05-05 00:43 39.85764 -104.66351 5391 ft 36 kts 359°
2026-05-05 00:43 39.86047 -104.66346 5387 ft 45 kts
2026-05-05 00:43 39.86348 -104.66343 5378 ft 37 kts
2026-05-05 00:44 39.86501 -104.66392 5378 ft 18 kts 279°
2026-05-05 00:44 39.86448 -104.66567 5376 ft 27 kts 201°
2026-05-05 00:44 39.86242 -104.66559 5379 ft 34 kts 194°
2026-05-05 00:44 39.86129 -104.66820 5379 ft 41 kts 274°
2026-05-05 00:45 39.86181 -104.67039 5372 ft 14 kts 356°
2026-05-05 00:45 39.86252 -104.67033 5375 ft 0 kts
2026-05-05 00:45 39.86253 -104.67033 5374 ft 0 kts